Regional Weather Roundup
Issued by NWS

Home | Current Version | Previous Version | Text Only | Print | Product List | Glossary Off
Versions: 1 2 3 4 5 6 7 8 9 10 11 12 13 14 15 16 17 18 19 20 21 22 23 24 25 26 27 28 29 30 31 32 33 34 35 36 37 38 39 40 41 42 43 44 45 46 47 48 49 50

721
ASUS43 KBIS 221502
RWRND

NORTH DAKOTA REGIONAL WEATHER ROUNDUP
NATIONAL WEATHER SERVICE BISMARCK ND
900 AM CST SUN JAN 22 2017

NOTE: "FAIR" INDICATES FEW OR NO CLOUDS BELOW 12,000 FEET WITH NO
SIGNIFICANT WEATHER AND/OR OBSTRUCTIONS TO VISIBILITY.


NDZ001>003-009>011-017-221600-
NORTHWEST NORTH DAKOTA

CITY           SKY/WX    TMP DP  RH WIND       PRES   REMARKS
WILLISTON      CLOUDY    29  26  89 W10       29.77R WCI  20
MINOT          CLOUDY    31  27  85 W16       29.71R WCI  20
MINOT AFB      CLOUDY    29  25  84 W18       29.70R WCI  17
$$

NDZ018>021-031>035-040>046-221600-
SOUTHWEST NORTH DAKOTA

CITY           SKY/WX    TMP DP  RH WIND       PRES   REMARKS
BISMARCK       CLOUDY    29  27  92 W7        29.77R FOG
DICKINSON      CLOUDY    24  22  91 NW12      29.75R FOG     WCI  13
GARRISON         N/A     29  28  96 W10       29.73R WCI  20
HETTINGER ARPT CLOUDY    23  20  88 NW20      29.79R WCI   8
$$

NDZ004>008-012>016-024-026-027-054-221600-
NORTHEAST NORTH DAKOTA

CITY           SKY/WX    TMP DP  RH WIND       PRES   REMARKS
GRAND FORKS    CLOUDY    34  31  88 W6        29.70R FOG
GRND FRKS AFB  CLOUDY    33  32  96 W5        29.70R
DEVILS LAKE    CLOUDY    28  27  96 W13       29.69R FOG     WCI  17
$$

NDZ022-023-025-028>030-036>039-047>053-221600-
SOUTHEAST NORTH DAKOTA

CITY           SKY/WX    TMP DP  RH WIND       PRES   REMARKS
FARGO          CLOUDY    35  33  92 W3        29.71R FOG
JAMESTOWN      CLOUDY    30  29  96 W12       29.70R FOG
$$





USA.gov is the U.S. government's official web portal to all federal, state and local government web resources and services.